Weather History for Hattiesburg, MS

Change the Weather History Date:

Friday, February 8, 2013

  Actual Average Record
Temperature  
Mean Temperature 61 °F 50 °F  
Max Temperature 72 °F 62 °F 82 °F (1957)
Min Temperature 50 °F 39 °F 19 °F (1967)
Degree Days  
Heating Degree Days 4 15  
Month to date heating degree days 71 126  
Since 1 July heating degree days 1150 1425  
Cooling Degree Days 0 0  
Month to date cooling degree days 0 0  
Year to date cooling degree days 28 6  
Growing Degree Days 10 (Base 50)    
Moisture  
Dew Point 51 °F    
Average Humidity 77    
Maximum Humidity 96    
Minimum Humidity 57    
Precipitation  
Precipitation 0.00 in 0.18 in 0.51 in (1971)
Month to date precipitation 1.12 1.37  
Year to date precipitation 9.05 7.11  
Sea Level Pressure  
Sea Level Pressure 30.08 in    
Wind  
Wind Speed 6 mph (North)    
Max Wind Speed 18 mph    
Max Gust Speed 25 mph    
Visibility 9 miles    
Events      
T = Trace of Precipitation, MM = Missing Value Source: NWS Daily Summary

Daily Weather History Graph

Daily Weather History Graph

Search for Another Location

Airport:

Trip Planner

Search our weather history database for the weather conditions in past years. The results will help you decide how hot, cold, wet, or windy it might be!

Date:

Astronomy

Feb. 08, 2013 Rise Set
Actual Time 6:44 AM CST 5:38 PM CST
Civil Twilight 6:19 AM CST 6:03 PM CST
Nautical Twilight 5:50 AM CST 6:32 PM CST
Astronomical Twilight 5:22 AM CST 7:00 PM CST
Moon 5:09 AM CST (2/8) 4:13 PM CST (2/8)
Length of Visible Light 11h 44m
Length of Day
10h 54m
Waning Crescent, 3% of the Moon is Illuminated
Feb 8
Waning Crescent
Feb 10
New
Feb 17
First Quarter
Feb 25
Full
Mar 4
Last Quarter

Hourly Weather History & Observations

Time (CST) Temp. Dew Point Humidity Pressure Visibility Wind Dir Wind Speed Gust Speed Precip Events Conditions
12:46 AM 51.8 °F 48.2 °F 88% 29.98 in 2.5 mi Calm Calm - N/A   Overcast
12:53 AM 51.1 °F 48.9 °F 92% 29.97 in 8.0 mi Calm Calm - N/A   Overcast
1:16 AM 50.0 °F 48.2 °F 94% 29.98 in 10.0 mi Calm Calm - N/A   Scattered Clouds
1:53 AM 50.0 °F 48.0 °F 93% 29.98 in 10.0 mi Calm Calm - N/A   Clear
2:53 AM 52.0 °F 50.0 °F 93% 29.98 in 10.0 mi Calm Calm - N/A   Overcast
3:53 AM 54.0 °F 51.1 °F 90% 29.99 in 10.0 mi Calm Calm - N/A   Overcast
4:53 AM 54.0 °F 52.0 °F 93% 29.99 in 9.0 mi SE 3.5 mph - N/A   Overcast
5:53 AM 54.0 °F 52.0 °F 93% 30.00 in 9.0 mi Calm Calm - N/A   Mostly Cloudy
6:48 AM 51.8 °F 50.0 °F 94% 30.02 in 1.8 mi Calm Calm - N/A   Clear
6:53 AM 52.0 °F 50.0 °F 93% 30.02 in 0.8 mi Calm Calm - N/A   Clear
7:07 AM 51.8 °F 50.0 °F 94% 30.03 in 2.0 mi Calm Calm - N/A   Clear
7:14 AM 51.8 °F 50.0 °F 94% 30.03 in 8.0 mi Calm Calm - N/A   Clear
7:53 AM 54.0 °F 51.1 °F 90% 30.04 in 10.0 mi Calm Calm - N/A   Scattered Clouds
8:53 AM 57.0 °F 55.0 °F 93% 30.06 in 10.0 mi Calm Calm - N/A   Mostly Cloudy
9:53 AM 66.0 °F 57.0 °F 73% 30.08 in 10.0 mi NNW 8.1 mph - N/A   Scattered Clouds
10:02 AM 66.2 °F 57.2 °F 73% 30.08 in 10.0 mi NW 9.2 mph - N/A   Mostly Cloudy
10:53 AM 66.9 °F 57.9 °F 73% 30.09 in 10.0 mi North 9.2 mph - N/A   Mostly Cloudy
11:34 AM 66.2 °F 55.4 °F 68% 30.09 in 10.0 mi NW 6.9 mph - N/A   Scattered Clouds
11:42 AM 69.8 °F 57.2 °F 64% 30.09 in 10.0 mi NW 6.9 mph - N/A   Mostly Cloudy
11:53 AM 69.1 °F 55.9 °F 63% 30.08 in 10.0 mi North 8.1 mph - N/A   Scattered Clouds
12:53 PM 69.1 °F 55.0 °F 61% 30.07 in 10.0 mi NNW 10.4 mph - N/A   Scattered Clouds
1:53 PM 69.1 °F 54.0 °F 58% 30.07 in 10.0 mi NNW 13.8 mph 19.6 mph N/A   Scattered Clouds
2:53 PM 66.9 °F 54.0 °F 63% 30.08 in 10.0 mi NW 12.7 mph - N/A   Mostly Cloudy
3:53 PM 66.0 °F 54.0 °F 65% 30.09 in 10.0 mi North 9.2 mph 19.6 mph N/A   Partly Cloudy
4:53 PM 61.0 °F 53.1 °F 75% 30.12 in 10.0 mi North 11.5 mph - N/A   Scattered Clouds
5:13 PM 60.8 °F 53.6 °F 77% 30.12 in 10.0 mi North 10.4 mph - N/A   Mostly Cloudy
5:53 PM 60.1 °F 51.1 °F 72% 30.13 in 10.0 mi North 6.9 mph - N/A   Overcast
6:53 PM 57.9 °F 48.9 °F 72% 30.16 in 10.0 mi North 6.9 mph - N/A   Overcast
7:53 PM 57.0 °F 48.0 °F 72% 30.18 in 10.0 mi NNE 8.1 mph - N/A   Overcast
8:53 PM 55.9 °F 46.0 °F 69% 30.20 in 10.0 mi NNE 10.4 mph - N/A   Overcast
9:53 PM 54.0 °F 45.0 °F 72% 30.22 in 10.0 mi NE 8.1 mph - N/A   Overcast
10:53 PM 53.1 °F 44.1 °F 71% 30.21 in 10.0 mi NNE 6.9 mph - N/A   Mostly Cloudy
11:01 PM 51.8 °F 44.6 °F 76% 30.21 in 10.0 mi NNE 8.1 mph - N/A   Partly Cloudy
11:53 PM 50.0 °F 43.0 °F 77% 30.21 in 10.0 mi NNE 4.6 mph - N/A   Clear